Location: Bill Sadowski Park
(25.6087°N, 80.3181°W)
Time: 19:13:15
(UTC-04:00)

Tiangong 2 - Visible Passes

Search period start: 21 October 2017 00:00
Search period end: 31 October 2017 00:00
Orbit: 388 x 391 km, 42.8° (Epoch: 21 October)

Date Brightness Start Highest point End Pass type
(mag) Time Alt. Az. Time Alt. Az. Time Alt. Az.
21 Oct 2.6 06:15:34 18° NNW 06:17:23 32° NNE 06:20:18 10° E visible
22 Oct 4.2 05:20:51 14° ENE 05:20:51 14° ENE 05:21:42 10° ENE visible
22 Oct 1.7 06:53:18 10° WNW 06:56:19 40° SW 06:59:21 10° SSE visible
23 Oct 1.0 05:58:35 81° ENE 05:58:35 81° ENE 06:01:42 10° SE visible
24 Oct 3.0 06:36:23 15° WSW 06:37:15 16° SW 06:39:18 10° S visible
25 Oct 3.8 05:41:52 14° SSE 05:41:52 14° SSE 05:42:25 10° SSE visible
25 Oct 3.7 20:30:19 10° SW 20:31:02 15° SSW 20:31:02 15° SSW visible
26 Oct 2.7 19:33:09 10° S 19:35:33 20° SE 19:36:25 18° ESE visible
27 Oct 1.5 20:11:09 10° WSW 20:14:03 61° WNW 20:14:03 61° WNW visible
28 Oct 1.4 19:13:18 10° SW 19:16:24 51° SE 19:19:14 12° ENE visible
28 Oct 4.5 20:51:23 10° WNW 20:51:35 11° WNW 20:51:35 11° WNW visible
29 Oct 2.8 19:52:32 10° W 19:55:18 27° NNW 19:56:39 20° N visible
